TimeGMT,TemperatureF,Dew PointF,Humidity,Sea Level PressureIn,VisibilityMPH,Wind Direction,Wind SpeedMPH,Gust SpeedMPH,PrecipitationIn,Events,Conditions,WindDirDegrees,DateUTC
12:50 AM,42.8,41.0,93,29.98,6.2,SSW,5.8,-,N/A,,Partly Cloudy,200,2012-11-22 00:50:00
1:50 AM,46.4,42.8,87,29.98,6.2,South,5.8,-,N/A,,Mostly Cloudy,170,2012-11-22 01:50:00
2:50 AM,48,44,81,29.97,19,South,8.1,,,,Scattered Clouds,190,2012-11-22 02:50:00
2:50 AM,48.2,44.6,87,29.95,6.2,South,8.1,-,N/A,,Scattered Clouds,190,2012-11-22 02:50:00
3:50 AM,50.0,44.6,82,29.95,6.2,South,9.2,-,N/A,,Scattered Clouds,170,2012-11-22 03:50:00
4:50 AM,50.0,46.4,87,29.92,6.2,South,11.5,-,N/A,,Scattered Clouds,190,2012-11-22 04:50:00
5:50 AM,51,48,86,29.93,9,South,10.4,,,Rain,Light Rain,190,2012-11-22 05:50:00
5:50 AM,50.0,48.2,94,29.92,6.2,South,10.4,-,N/A,Rain,Light Rain,190,2012-11-22 05:50:00
6:50 AM,51.8,48.2,88,29.92,6.2,SSW,11.5,-,N/A,,Mostly Cloudy,200,2012-11-22 06:50:00
7:50 AM,51.8,48.2,88,29.92,6.2,SSW,15.0,-,N/A,,Scattered Clouds,200,2012-11-22 07:50:00
8:50 AM,53,47,75,29.92,19,SSW,16.1,,,,Partly Cloudy,200,2012-11-22 08:50:00
8:50 AM,53.6,48.2,82,29.92,6.2,SSW,16.1,-,N/A,,Mostly Cloudy,200,2012-11-22 08:50:00
9:50 AM,55.4,48.2,77,29.89,6.2,SSW,17.3,-,N/A,,Mostly Cloudy,200,2012-11-22 09:50:00
10:50 AM,55.4,46.4,72,29.89,6.2,SSW,21.9,-,N/A,,Mostly Cloudy,200,2012-11-22 10:50:00
11:50 AM,55,46,62,29.87,19,SSW,21.9,,,,Partly Cloudy,200,2012-11-22 11:50:00
11:50 AM,55.4,46.4,72,29.86,6.2,SSW,21.9,-,N/A,,Scattered Clouds,200,2012-11-22 11:50:00
12:50 PM,55.4,44.6,67,29.83,6.2,SSW,24.2,35.7,N/A,,Mostly Cloudy,200,2012-11-22 12:50:00
1:50 PM,55.4,44.6,67,29.80,6.2,SSW,20.7,-,N/A,,Scattered Clouds,210,2012-11-22 13:50:00
2:50 PM,54,43,57,29.79,19,SSW,26.5,,,,Mostly Cloudy,200,2012-11-22 14:50:00
2:50 PM,55.4,42.8,63,29.77,6.2,SSW,26.5,41.4,N/A,,Mostly Cloudy,200,2012-11-22 14:50:00
3:50 PM,53.6,42.8,67,29.77,6.2,SSW,24.2,-,N/A,,Overcast,200,2012-11-22 15:50:00
4:50 PM,53.6,42.8,67,29.74,6.2,South,24.2,35.7,N/A,,Overcast,190,2012-11-22 16:50:00
5:50 PM,54,43,57,29.74,19,SSW,25.3,,,,Overcast,200,2012-11-22 17:50:00
5:50 PM,53.6,42.8,67,29.71,6.2,SSW,25.3,38.0,N/A,,Overcast,200,2012-11-22 17:50:00
6:50 PM,53.6,42.8,67,29.71,6.2,SSW,24.2,40.3,N/A,,Overcast,200,2012-11-22 18:50:00
7:50 PM,53.6,42.8,67,29.68,6.2,SSW,24.2,38.0,N/A,,Overcast,200,2012-11-22 19:50:00
8:50 PM,54,43,56,29.69,19,SSW,23.0,,,,Overcast,200,2012-11-22 20:50:00
8:50 PM,53.6,42.8,67,29.68,6.2,SSW,23.0,36.8,N/A,,Overcast,200,2012-11-22 20:50:00
9:50 PM,53.6,44.6,72,29.65,6.2,South,23.0,35.7,N/A,,Scattered Clouds,190,2012-11-22 21:50:00
10:50 PM,50.0,46.4,87,29.68,0.8,WSW,18.4,-,N/A,,Scattered Clouds,240,2012-11-22 22:50:00
11:50 PM,47,44,87,29.72,6,West,18.4,,,,Scattered Clouds,270,2012-11-22 23:50:00
11:50 PM,48.2,44.6,87,29.71,6.2,West,18.4,-,N/A,,Mostly Cloudy,270,2012-11-22 23:50:00